Tracking 19242 objects as of 15-Aug-2018
HD Live streaming from Space Station
objects crossing your sky now

WESTAR 5

Track WESTAR 5 now!
WESTAR 5 is classified as:


NORAD ID: 13269
Int'l Code: 1982-058A
Perigee: 36,023.6 km
Apogee: 36,163.3 km
Inclination: 15.4 °
Period: 1,451.4 minutes
Semi major axis: 42464 km
RCS: 3.0486 m2 (large)
Launch date: June 9, 1982
Source: United States (US)
Launch site: AIR FORCE EASTERN TEST RANGE (AFETR)
aabbcc
Your satellite tracking list
Your tracking list is empty




NASA's NSSDC Master Catalog

Two Line Element Set (TLE):
1 13269U 82058A   18226.85552551 -.00000034  00000-0  00000+0 0  9996
2 13269  15.3728   0.8819 0016445 207.6448 146.2919  0.99212100 91125
Source of the keplerian elements: AFSPC